[[{"header":{"parameterUnit":"m.s-1","parameterCategory":1,"la1":30.2991,"la2":30.254,"lo1":-89.0895,"lo2":-89.0444,"dy":0.0017,"dx":0.0017,"nx":28,"ny":28,"refTime":"2023-10-07T09:00:00:Z","depth":0,"parameterNumber":2,"parameterNumberName":"U-component_of_WINDS"},"data":[0,0,0,0,0,0,0,0,0,0,0,0,0,0,0,0,0,0,0,0,0,0,0,0,0,0,0,0,0,0,0,0,0,0,0,0,0,0,0,0,0,0,0,0,0,0,0,0,0,0,0,0,0,0,0,0,0,0,-0.5301,-0.5301,0,-0.5315,-0.5315,-0.5315,-0.5304,-0.5303,-0.5303,-0.5302,-0.5318,-0.5319,-0.532,0,0,0,0,0,0,0,0,0,0,0,0,0,-0.5263,-0.5264,-0.5301,-0.5301,-0.5301,-0.5315,-0.5315,-0.5315,-0.5304,-0.5303,-0.5302,-0.5302,-0.5317,-0.5319,-0.532,0,0,0,0,0,0,0,0,0,0,0,0,0,-0.5278,-0.5264,-0.5301,-0.5297,-0.5297,-0.5315,-0.5315,-0.5316,-0.5304,-0.5303,-0.5302,-0.5302,-0.5317,-0.5318,-0.532,-0.5343,0,0,-0.5324,-0.5324,0,0,0,0,0,0,0,0,-0.5278,-0.528,-0.5297,-0.5297,-0.5297,-0.5307,-0.5308,-0.5325,-0.5304,-0.5301,-0.5302,-0.5301,-0.5315,-0.5316,-0.5321,-0.5344,-0.5344,-0.5324,-0.5325,-0.5325,-0.5326,0,0,0,0,0,0,0,-0.5277,-0.5279,-0.5306,-0.5297,-0.5297,-0.5294,-0.5296,-0.5311,-0.5312,-0.5301,-0.53,-0.5302,-0.5315,-0.5319,-0.5321,-0.5345,-0.5324,-0.5325,-0.5326,-0.5326,-0.5386,-0.5387,0,0,0,0,0,0,-0.5276,-0.5278,-0.5306,-0.5307,-0.5285,-0.5296,-0.5297,-0.5304,-0.5312,-0.5312,-0.5303,-0.5302,-0.5317,-0.5319,-0.5321,-0.5349,-0.5325,-0.5327,-0.5327,-0.5386,-0.5387,-0.5387,0,0,0,0,0,0,-0.5275,-0.5278,-0.5305,-0.5292,-0.5296,-0.5297,-0.5305,-0.5305,-0.531,-0.5313,-0.5313,-0.5308,-0.5317,-0.532,-0.5337,-0.5349,-0.5327,-0.5328,-0.5385,-0.5386,-0.5387,-0.5404,0,0,0,0,0,0,-0.5274,-0.5278,-0.5287,-0.5293,-0.5296,-0.5321,-0.5306,-0.5306,-0.5312,-0.5311,-0.5318,-0.5318,-0.5317,-0.5335,-0.5339,-0.535,-0.5329,-0.5384,-0.5385,-0.5387,-0.5402,-0.5405,-0.5408,0,0,0,0,0,-0.5273,-0.5292,-0.5288,-0.5291,-0.5308,-0.5322,-0.5324,-0.5322,-0.5313,-0.5322,-0.5324,-0.5318,-0.5347,-0.5337,-0.5341,-0.5353,-0.5383,-0.5385,-0.5387,-0.5401,-0.5405,-0.5408,0,0,0,0,0,0,-0.5288,-0.5292,-0.5288,-0.5309,-0.5315,-0.532,-0.5331,-0.5326,-0.5335,-0.5333,-0.533,-0.5332,-0.5351,-0.5354,-0.5343,-0.5376,-0.5364,-0.5366,-0.5373,-0.5377,-0.538,-0.5379,-0.533,0,0,0,0,0,-0.5294,-0.5305,-0.5308,-0.5327,-0.533,-0.533,-0.5336,-0.5334,-0.534,-0.5343,-0.5346,-0.5352,-0.5363,-0.537,-0.538,-0.5402,-0.5403,-0.5412,-0.5415,-0.5418,-0.542,-0.5431,-0.5435,-0.5393,-0.5393,-0.5393,0,0,-0.5307,-0.531,-0.5318,-0.533,-0.5334,-0.5346,-0.5332,-0.5346,-0.5354,-0.5345,-0.5362,-0.5364,-0.5371,-0.5391,-0.54,-0.5394,-0.5432,-0.542,-0.5422,-0.5423,-0.5433,-0.5437,-0.5441,-0.5395,-0.5394,-0.5394,0,0,-0.5335,-0.5339,-0.5355,-0.5359,-0.5365,-0.5365,-0.5369,-0.5374,-0.5375,-0.5391,-0.5384,-0.5394,-0.5413,-0.5418,-0.5423,-0.5451,-0.5446,-0.5454,-0.547,-0.5481,-0.5484,-0.5487,-0.5497,-0.5501,-0.5457,-0.5457,-0.5457,0,-0.535,-0.5367,-0.5363,-0.5377,-0.5382,-0.5373,-0.5389,-0.5393,-0.5403,-0.5407,-0.54,-0.5422,-0.5426,-0.5446,-0.5453,-0.5457,-0.5461,-0.5454,-0.5484,-0.5487,-0.549,-0.5499,-0.5503,-0.5458,-0.5458,-0.5458,-0.5457,0,-0.5385,-0.5397,-0.5408,-0.5417,-0.5424,-0.5438,-0.5436,-0.5443,-0.544,-0.544,-0.5457,-0.5461,-0.5471,-0.5476,-0.5473,-0.5496,-0.5492,-0.5485,-0.5473,-0.5495,-0.5504,-0.5507,-0.5459,-0.5459,-0.5459,-0.5458,0,0,-0.5425,-0.543,-0.5435,-0.5438,-0.5444,-0.5453,-0.5466,-0.5475,-0.5482,-0.5488,-0.5499,-0.5514,-0.5507,-0.5512,-0.551,-0.5519,-0.5541,-0.5511,-0.5511,-0.5516,-0.5566,-0.5572,-0.5576,-0.5537,-0.5538,-0.5539,-0.5566,0,-0.5454,-0.5477,-0.5474,-0.5496,-0.5507,-0.5497,-0.5509,-0.5514,-0.5514,-0.5523,-0.5523,-0.5534,-0.5524,-0.5527,-0.5536,-0.5537,-0.5551,-0.5535,-0.5548,-0.5548,-0.5547,-0.5581,-0.5587,-0.5612,-0.5569,-0.557,-0.557,0,-0.5491,-0.5498,-0.5521,-0.5524,-0.5528,-0.5539,-0.5547,-0.5555,-0.556,-0.5559,-0.5565,-0.556,-0.5573,-0.556,-0.5578,-0.5567,-0.5572,-0.5573,-0.5574,-0.5575,-0.5561,-0.5583,-0.5621,-0.5624,-0.5576,-0.5575,-0.5575,0,-0.5518,-0.5533,-0.5549,-0.5552,-0.5556,-0.5563,-0.5565,-0.5569,-0.5574,-0.5581,-0.5584,-0.5593,-0.5597,-0.5604,-0.5601,-0.5592,-0.5619,-0.5606,-0.5619,-0.5619,-0.5626,-0.5626,-0.5665,-0.5629,-0.5629,-0.5629,-0.5629,0,-0.5551,-0.5565,-0.5561,-0.557,-0.5586,-0.5581,-0.5597,-0.5598,-0.5601,-0.5611,-0.5603,-0.5612,-0.5608,-0.5617,-0.5615,-0.563,-0.5632,-0.5632,-0.5631,-0.5633,-0.5633,-0.5636,-0.5635,-0.563,-0.5629,-0.5629,-0.5629,0,-0.5584,-0.5581,-0.5598,-0.5599,-0.56,-0.5612,-0.5613,-0.5622,-0.5621,-0.5633,-0.5636,-0.5634,-0.5644,-0.5642,-0.5653,-0.5651,-0.567,-0.5667,-0.5668,-0.5668,-0.5681,-0.568,-0.5724,-0.5729,-0.5689,-0.569,-0.569,0,-0.5605,-0.5616,-0.5619,-0.5624,-0.5626,-0.5636,-0.5641,-0.5636,-0.5642,-0.5647,-0.5655,-0.5664,-0.5671,-0.5687,-0.5687,-0.5695,-0.5692,-0.5707,-0.5694,-0.5694,-0.5693,-0.5692,-0.5693,-0.571,-0.5711,-0.5711,-0.5711,0,-0.5643,-0.5641,-0.5649,-0.5656,-0.5662,-0.5667,-0.5672,-0.5677,-0.5672,-0.5679,-0.5688,-0.5694,-0.5704,-0.5713,-0.572,-0.5722,-0.5716,-0.5715,-0.5719,-0.5721,-0.5721,-0.5721,-0.5676,-0.5715,-0.5714,-0.5714,-0.5714,-0.5714,-0.5671,-0.568,-0.5683,-0.5691,-0.5694,-0.5698,-0.5706,-0.5706,-0.5713,-0.5721,-0.5718,-0.5729,-0.5732,-0.5741,-0.5743,-0.5752,-0.5746,-0.5751,-0.5752,-0.5754,-0.5755,-0.5719,-0.5753,-0.5753,-0.5753,-0.5753,-0.5753,0,-0.5709,-0.571,-0.5718,-0.5724,-0.573,-0.5723,-0.5727,-0.5733,-0.5742,-0.5746,-0.5752,-0.5763,-0.5771,-0.5771,-0.5779,-0.5785,-0.5782,-0.5787,-0.5787,-0.5787,-0.576,-0.5756,-0.5789,-0.5789,-0.5789,-0.5789,-0.5789,-0.5789,-0.5729,-0.5744,-0.5742,-0.5757,-0.5758,-0.5768,-0.5771,-0.5774,-0.5777,-0.5789,-0.5795,-0.5795,-0.5797,-0.5804,-0.5811,-0.5811,-0.5814,-0.582,-0.5819,-0.5793,-0.579,-0.5786,-0.5783,-0.5821,-0.5821,-0.5846,-0.5846,-0.5846]},{"header":{"parameterUnit":"m.s-1","parameterCategory":1,"la1":30.2991,"la2":30.254,"lo1":-89.0895,"lo2":-89.0444,"dy":0.0017,"dx":0.0017,"nx":28,"ny":28,"refTime":"2023-10-07T09:00:00:Z","depth":0,"parameterNumber":3,"parameterNumberName":"V-component_of_WINDS"},"data":[0,0,0,0,0,0,0,0,0,0,0,0,0,0,0,0,0,0,0,0,0,0,0,0,0,0,0,0,0,0,0,0,0,0,0,0,0,0,0,0,0,0,0,0,0,0,0,0,0,0,0,0,0,0,0,0,0,0,-6.32,-6.3201,0,-6.3269,-6.327,-6.3271,-6.3238,-6.3236,-6.3235,-6.3233,-6.3299,-6.3302,-6.3305,0,0,0,0,0,0,0,0,0,0,0,0,0,-6.3035,-6.3039,-6.32,-6.3201,-6.3202,-6.3269,-6.327,-6.3271,-6.3238,-6.3236,-6.3234,-6.3232,-6.3298,-6.3302,-6.3306,0,0,0,0,0,0,0,0,0,0,0,0,0,-6.3106,-6.304,-6.32,-6.3194,-6.3194,-6.3269,-6.327,-6.3271,-6.3239,-6.3236,-6.3234,-6.3231,-6.3296,-6.3301,-6.3306,-6.339,0,0,-6.3322,-6.3324,0,0,0,0,0,0,0,0,-6.3102,-6.3112,-6.3194,-6.3194,-6.3194,-6.3242,-6.3236,-6.3311,-6.3239,-6.3222,-6.3233,-6.323,-6.3282,-6.3288,-6.3306,-6.3393,-6.3396,-6.3322,-6.3325,-6.3327,-6.3329,0,0,0,0,0,0,0,-6.3097,-6.3109,-6.3227,-6.3195,-6.3195,-6.3186,-6.3193,-6.325,-6.3265,-6.3223,-6.3221,-6.323,-6.3281,-6.3302,-6.3308,-6.3397,-6.3322,-6.3327,-6.333,-6.3332,-6.3557,-6.356,0,0,0,0,0,0,-6.3093,-6.3105,-6.3225,-6.3229,-6.3141,-6.3191,-6.3199,-6.323,-6.3265,-6.3268,-6.3232,-6.3228,-6.3294,-6.3302,-6.331,-6.3412,-6.3327,-6.3332,-6.3335,-6.3555,-6.3558,-6.3561,0,0,0,0,0,0,-6.309,-6.3104,-6.3222,-6.3167,-6.3181,-6.3197,-6.3231,-6.3232,-6.3253,-6.3272,-6.3274,-6.325,-6.3293,-6.3303,-6.3371,-6.3414,-6.3334,-6.3339,-6.3551,-6.3556,-6.356,-6.3616,0,0,0,0,0,0,-6.3085,-6.3103,-6.3136,-6.3168,-6.3184,-6.3283,-6.3234,-6.3236,-6.3262,-6.3258,-6.3289,-6.3292,-6.3291,-6.3364,-6.3376,-6.3419,-6.3343,-6.3547,-6.3553,-6.3558,-6.361,-6.3622,-6.3631,0,0,0,0,0,-6.3079,-6.3147,-6.3137,-6.3152,-6.3225,-6.3286,-6.3295,-6.3295,-6.3266,-6.3298,-6.3311,-6.3291,-6.3407,-6.3371,-6.3385,-6.343,-6.3545,-6.3551,-6.3558,-6.3605,-6.3619,-6.3631,0,0,0,0,0,0,-6.3117,-6.3151,-6.3141,-6.3221,-6.3251,-6.328,-6.3321,-6.3309,-6.3347,-6.3341,-6.3337,-6.3344,-6.3416,-6.3429,-6.3389,-6.3514,-6.3471,-6.3481,-6.3503,-6.3516,-6.3526,-6.3522,-6.3347,0,0,0,0,0,-6.3135,-6.3183,-6.3209,-6.3277,-6.3293,-6.3305,-6.3331,-6.3329,-6.3359,-6.3371,-6.3388,-6.3417,-6.346,-6.3488,-6.3529,-6.3612,-6.3619,-6.365,-6.366,-6.3669,-6.3678,-6.3724,-6.3739,-6.3583,-6.3583,-6.3583,0,0,-6.3172,-6.3197,-6.3226,-6.3286,-6.3309,-6.3358,-6.3316,-6.3368,-6.3405,-6.3378,-6.3445,-6.3459,-6.3491,-6.3567,-6.3602,-6.3581,-6.3722,-6.3677,-6.3684,-6.3688,-6.3733,-6.3747,-6.376,-6.3588,-6.3587,-6.3586,0,0,-6.3265,-6.3288,-6.3349,-6.3374,-6.341,-6.3418,-6.3432,-6.3464,-6.3473,-6.354,-6.3522,-6.3564,-6.3638,-6.3663,-6.3685,-6.3789,-6.3773,-6.3802,-6.3858,-6.3903,-6.3916,-6.3927,-6.3966,-6.3979,-6.3811,-6.3811,-6.3811,0,-6.3306,-6.3381,-6.3381,-6.3437,-6.3464,-6.3444,-6.3506,-6.3529,-6.3576,-6.3595,-6.3571,-6.3665,-6.3685,-6.3768,-6.3794,-6.3812,-6.3829,-6.3799,-6.3914,-6.3925,-6.3935,-6.3972,-6.3987,-6.3814,-6.3814,-6.3814,-6.3813,0,-6.343,-6.3482,-6.3526,-6.3576,-6.3607,-6.3665,-6.3674,-6.3706,-6.3701,-6.3711,-6.378,-6.3804,-6.385,-6.3869,-6.3863,-6.3952,-6.3938,-6.3914,-6.3872,-6.3954,-6.3989,-6.4003,-6.3819,-6.3818,-6.3817,-6.3816,0,0,-6.3548,-6.3599,-6.3615,-6.3638,-6.3678,-6.3718,-6.3775,-6.3822,-6.3851,-6.3883,-6.3932,-6.3996,-6.3975,-6.4,-6.3997,-6.4037,-6.4121,-6.4009,-6.4009,-6.403,-6.4222,-6.4241,-6.4257,-6.411,-6.4113,-6.4115,-6.422,0,-6.3645,-6.3749,-6.3751,-6.3845,-6.3894,-6.3877,-6.3927,-6.3957,-6.3968,-6.401,-6.4021,-6.4068,-6.4035,-6.4051,-6.409,-6.4103,-6.416,-6.4095,-6.4155,-6.4157,-6.4149,-6.4275,-6.4295,-6.4393,-6.4233,-6.4236,-6.4237,0,-6.3773,-6.3814,-6.3913,-6.3948,-6.3969,-6.4014,-6.4059,-6.4099,-6.4132,-6.4137,-6.4167,-6.4159,-6.4217,-6.4172,-6.4252,-6.4208,-6.4233,-6.4243,-6.4247,-6.4253,-6.4203,-6.4287,-6.4424,-6.4439,-6.4258,-6.4257,-6.4255,0,-6.3851,-6.393,-6.4001,-6.4021,-6.4063,-6.4096,-6.4114,-6.4145,-6.4174,-6.4213,-6.4232,-6.4275,-6.43,-6.4334,-6.4337,-6.4304,-6.4419,-6.4373,-6.4425,-6.4425,-6.445,-6.4449,-6.4595,-6.4464,-6.4464,-6.4463,-6.4463,0,-6.3961,-6.4022,-6.4038,-6.4081,-6.415,-6.4152,-6.422,-6.4236,-6.4264,-6.431,-6.4296,-6.4339,-6.4341,-6.4385,-6.4387,-6.4455,-6.4465,-6.4471,-6.4471,-6.4473,-6.4473,-6.449,-6.4484,-6.4467,-6.4466,-6.4466,-6.4465,0,-6.406,-6.4073,-6.4149,-6.4184,-6.4194,-6.4244,-6.4273,-6.4314,-6.4324,-6.4383,-6.4396,-6.4412,-6.4463,-6.4471,-6.4529,-6.4531,-6.4612,-6.4604,-6.4602,-6.4602,-6.4653,-6.4649,-6.4817,-6.4839,-6.4692,-6.4693,-6.4695,0,-6.413,-6.4178,-6.4219,-6.425,-6.4271,-6.4321,-6.4351,-6.4355,-6.4388,-6.443,-6.4467,-6.4517,-6.4557,-6.464,-6.4656,-6.4701,-6.4695,-6.4751,-6.4702,-6.4703,-6.4698,-6.4696,-6.4701,-6.476,-6.4762,-6.4763,-6.4764,0,-6.4253,-6.4257,-6.4303,-6.4352,-6.439,-6.4428,-6.4463,-6.4489,-6.4497,-6.4534,-6.4588,-6.4619,-6.4681,-6.4732,-6.4777,-6.4794,-6.4782,-6.478,-6.4795,-6.4798,-6.4795,-6.4799,-6.463,-6.4776,-6.4775,-6.4774,-6.4773,-6.4773,-6.4341,-6.4384,-6.442,-6.4472,-6.45,-6.4534,-6.4576,-6.4593,-6.4638,-6.4691,-6.469,-6.4749,-6.4782,-6.4842,-6.4863,-6.4909,-6.489,-6.4911,-6.4916,-6.4922,-6.4928,-6.4787,-6.4916,-6.4916,-6.4916,-6.4916,-6.4915,0,-6.4465,-6.4488,-6.4536,-6.4588,-6.4629,-6.4615,-6.4655,-6.469,-6.4743,-6.4775,-6.4817,-6.4879,-6.4928,-6.4949,-6.4997,-6.503,-6.5025,-6.5042,-6.5041,-6.5045,-6.4941,-6.4924,-6.5046,-6.5046,-6.5046,-6.5046,-6.5046,-6.5046,-6.4534,-6.4607,-6.4616,-6.4702,-6.4725,-6.4785,-6.4809,-6.484,-6.4867,-6.4938,-6.498,-6.4994,-6.5022,-6.5073,-6.5117,-6.5122,-6.5141,-6.5161,-6.5164,-6.5066,-6.5052,-6.504,-6.5025,-6.5165,-6.5165,-6.5265,-6.5265,-6.5266]}]]